sat.trackr.live / text

‹ back to catalog

STARLINK-36691

NORAD 67735 · 2026-026Q

PAYLOAD ACTIVE UNKNOWN

§ Identity

Operator
Country
US
Launch date
2026-02-11
Launch site
AFWTR
Launch vehicle
Mass (kg)
RCS (m²)

Purposes: comms

External: N2YO · Heavens-Above · Gunter

§ Orbital elements

Epoch: 2026-05-25T03:18:01.685664Z

Period
93.91 min
Inclination
97.2864°
Eccentricity
0.0000363
Mean motion
15.33453749 rev/d
Perigee alt
465.3 km
Apogee alt
465.8 km
Semi-major
6,843.7 km
B*
5.3176e-4
RAAN
198.6938°
Arg perigee
117.2379°
Mean anomaly
242.8901°
Rev number
1,584

§ Raw data

STARLINK-366911 67735U 26026Q   26145.13751951  .00017136  00000+0  53176-3 0  99962 67735  97.2864 198.6938 0000363 117.2379 242.8901 15.33453749 15840

JSON: /api/v1/satellites/67735 · /tle

For live sub-satellite position, see the globe view (requires WebGL).

§ Visibility from observer

Set your observer location to see the next 7 days of passes ≥ 10°. The values pass through the URL so the page stays shareable.

No JS? Fill the form by hand. The geolocation button needs JavaScript.